TimeCEST,TemperatureF,Dew PointF,Humidity,Sea Level PressureIn,VisibilityMPH,Wind Direction,Wind SpeedMPH,Gust SpeedMPH,PrecipitationIn,Events,Conditions,WindDirDegrees,DateUTC
12:00 AM,60.8,55.4,82,30.01,-9999.0,SW,4.6,-,N/A,,Clear,230,2013-06-15 22:00:00
12:30 AM,60.8,53.6,77,30.01,-9999.0,SSW,6.9,-,N/A,,Clear,210,2013-06-15 22:30:00
1:00 AM,60.8,55.4,82,30.01,-9999.0,South,5.8,-,N/A,,Clear,180,2013-06-15 23:00:00
1:30 AM,59.0,53.6,82,30.01,-9999.0,SW,6.9,-,N/A,,Clear,220,2013-06-15 23:30:00
2:00 AM,60,55,78,30.00,31,SW,8.9,,,,Mostly Cloudy,220,2013-06-16 00:00:00
2:00 AM,59.0,55.4,88,30.01,-9999.0,SW,6.9,-,N/A,,Clear,220,2013-06-16 00:00:00
2:30 AM,60.8,55.4,82,30.01,-9999.0,SSW,5.8,-,N/A,,Clear,210,2013-06-16 00:30:00
3:00 AM,59.0,55.4,88,30.01,-9999.0,WSW,6.9,-,N/A,,Clear,240,2013-06-16 01:00:00
3:30 AM,57.2,53.6,88,30.04,-9999.0,West,8.1,-,N/A,,Clear,260,2013-06-16 01:30:00
4:00 AM,57.2,53.6,88,30.04,-9999.0,West,9.2,-,N/A,,Clear,270,2013-06-16 02:00:00
4:30 AM,57.2,53.6,88,30.04,-9999.0,WSW,9.2,-,N/A,,Clear,250,2013-06-16 02:30:00
5:00 AM,55.4,51.8,88,30.04,-9999.0,SW,8.1,-,N/A,,Clear,230,2013-06-16 03:00:00
5:30 AM,57.2,51.8,82,30.04,-9999.0,West,10.4,-,N/A,,Clear,260,2013-06-16 03:30:00
6:00 AM,59.0,51.8,77,30.04,-9999.0,West,8.1,-,N/A,,Clear,260,2013-06-16 04:00:00
6:30 AM,59.0,53.6,82,30.04,-9999.0,West,6.9,-,N/A,,Clear,260,2013-06-16 04:30:00
7:00 AM,60.8,51.8,72,30.06,-9999.0,WSW,4.6,-,N/A,,Clear,240,2013-06-16 05:00:00
7:30 AM,60.8,51.8,72,30.06,-9999.0,WSW,6.9,-,N/A,,Clear,250,2013-06-16 05:30:00
8:00 AM,62,52,62,30.05,47,West,6.7,,,,Mostly Cloudy,260,2013-06-16 06:00:00
8:00 AM,60.8,50.0,68,30.06,6.2,WSW,6.9,-,N/A,,Mostly Cloudy,250,2013-06-16 06:00:00
8:30 AM,64.4,51.8,64,30.06,6.2,WSW,6.9,-,N/A,,Mostly Cloudy,240,2013-06-16 06:30:00
9:00 AM,64.4,50.0,59,30.06,-9999.0,WSW,6.9,-,N/A,,Clear,240,2013-06-16 07:00:00
9:30 AM,66.2,50.0,56,30.06,-9999.0,WSW,9.2,-,N/A,,Clear,240,2013-06-16 07:30:00
10:00 AM,66.2,50.0,56,30.06,-9999.0,WSW,9.2,-,N/A,,Clear,250,2013-06-16 08:00:00
10:30 AM,68.0,51.8,56,30.06,-9999.0,West,9.2,-,N/A,,Clear,270,2013-06-16 08:30:00
11:00 AM,68.0,51.8,56,30.06,6.2,West,9.2,-,N/A,,Partly Cloudy,270,2013-06-16 09:00:00
11:30 AM,69.8,51.8,53,30.06,6.2,WSW,9.2,-,N/A,,Partly Cloudy,250,2013-06-16 09:30:00
12:00 PM,69.8,53.6,56,30.06,6.2,WSW,10.4,-,N/A,,Partly Cloudy,240,2013-06-16 10:00:00
12:30 PM,71.6,53.6,53,30.06,6.2,West,12.7,-,N/A,,Partly Cloudy,260,2013-06-16 10:30:00
1:00 PM,73.4,55.4,53,30.06,6.2,WSW,11.5,-,N/A,,Partly Cloudy,250,2013-06-16 11:00:00
1:30 PM,73.4,55.4,53,30.04,6.2,West,15.0,-,N/A,,Partly Cloudy,260,2013-06-16 11:30:00
2:00 PM,74,55,41,30.00,47,WSW,11.2,,,,Scattered Clouds,250,2013-06-16 12:00:00
2:00 PM,73.4,53.6,50,30.04,-9999.0,SW,11.5,-,N/A,,Clear,230,2013-06-16 12:00:00
2:30 PM,73.4,51.8,47,30.04,-9999.0,WSW,12.7,-,N/A,,Clear,250,2013-06-16 12:30:00
3:00 PM,73.4,53.6,50,30.04,-9999.0,WSW,9.2,-,N/A,,Clear,250,2013-06-16 13:00:00
3:30 PM,75.2,53.6,47,30.04,-9999.0,West,11.5,-,N/A,,Clear,260,2013-06-16 13:30:00
4:00 PM,75.2,53.6,47,30.01,-9999.0,SW,8.1,-,N/A,,Clear,220,2013-06-16 14:00:00
4:30 PM,75.2,51.8,44,30.01,-9999.0,West,10.4,-,N/A,,Clear,260,2013-06-16 14:30:00
5:00 PM,77.0,55.4,47,30.01,-9999.0,West,6.9,-,N/A,,Clear,280,2013-06-16 15:00:00
5:30 PM,75.2,55.4,50,30.01,-9999.0,West,10.4,-,N/A,,Clear,270,2013-06-16 15:30:00
6:00 PM,75.2,53.6,47,30.01,-9999.0,West,12.7,-,N/A,,Clear,270,2013-06-16 16:00:00
6:30 PM,73.4,55.4,53,30.01,-9999.0,West,9.2,-,N/A,,Clear,270,2013-06-16 16:30:00
7:00 PM,75.2,55.4,50,30.01,-9999.0,NW,5.8,-,N/A,,Clear,320,2013-06-16 17:00:00
7:30 PM,73.4,55.4,53,30.01,-9999.0,North,6.9,-,N/A,,Clear,10,2013-06-16 17:30:00
8:00 PM,73,55,43,29.98,47,NNE,2.2,,,,Scattered Clouds,30,2013-06-16 18:00:00
8:00 PM,73.4,57.2,57,30.01,-9999.0,NNE,4.6,-,N/A,,Clear,30,2013-06-16 18:00:00
8:30 PM,71.6,55.4,57,30.01,-9999.0,ENE,3.5,-,N/A,,Clear,70,2013-06-16 18:30:00
9:00 PM,68.0,55.4,64,30.01,-9999.0,SE,3.5,-,N/A,,Clear,130,2013-06-16 19:00:00
9:30 PM,66.2,53.6,64,30.01,-9999.0,Variable,2.3,-,N/A,,Clear,0,2013-06-16 19:30:00
10:00 PM,62.6,55.4,77,30.04,-9999.0,SSE,2.3,-,N/A,,Clear,160,2013-06-16 20:00:00
10:30 PM,64.4,55.4,73,30.04,-9999.0,SE,5.8,-,N/A,,Clear,140,2013-06-16 20:30:00
11:00 PM,62.6,55.4,77,30.04,-9999.0,SE,5.8,-,N/A,,Clear,140,2013-06-16 21:00:00
11:30 PM,62.6,53.6,72,30.04,-9999.0,SSE,4.6,-,N/A,,Clear,150,2013-06-16 21:30:00